Weather History for Oujda, Morocco

Change the Weather History Date:

Monday, January 7, 2013

  Actual Average Record
Temperature  
Mean Temperature 48 °F -  
Max Temperature 63 °F 59 °F 77 °F (1999)
Min Temperature 33 °F 38 °F 30 °F (2000)
Degree Days  
Heating Degree Days 17    
Moisture  
Dew Point 38 °F    
Average Humidity 72    
Maximum Humidity 93    
Minimum Humidity 35    
Precipitation  
Precipitation 0.00 in 0.04 in - ()
Sea Level Pressure  
Sea Level Pressure 30.35 in    
Wind  
Wind Speed 3 mph ()    
Max Wind Speed 7 mph    
Max Gust Speed -    
Visibility 10.8 miles    
Events      
Averages and records for this station are not official NWS values.
T = Trace of Precipitation, MM = Missing Value Source: Averaged Metar Reports

Daily Weather History Graph

Daily Weather History Graph

Search for Another Location

Airport:

Trip Planner

Search our weather history database for the weather conditions in past years. The results will help you decide how hot, cold, wet, or windy it might be!

Date:

Astronomy

Jan. 07, 2013 Rise Set
Actual Time 7:15 AM WET 5:12 PM WET
Civil Twilight 6:47 AM WET 5:40 PM WET
Nautical Twilight 6:16 AM WET 6:11 PM WET
Astronomical Twilight 5:46 AM WET 6:42 PM WET
Moon 2:25 AM WET (1/7) 1:09 PM WET (1/7)
Length of Visible Light 10h 52m
Length of Day
9h 56m
Waning Crescent, 25% of the Moon is Illuminated
Jan 7
Waning Crescent
Jan 11
New
Jan 18
First Quarter
Jan 27
Full
Feb 3
Last Quarter

Hourly Weather History & Observations

Time (WET) Temp. Windchill Dew Point Humidity Pressure Visibility Wind Dir Wind Speed Gust Speed Precip Events Conditions
12:00 AM 42 °F - 36 °F 72% 30.44 in 12 mi SW 4.6 mph - -  
12:00 AM 41.0 °F 38.0 °F 35.6 °F 81% 30.39 in - SW 4.6 mph - N/A   Clear
1:00 AM 41.0 °F 36.4 °F 35.6 °F 81% 30.36 in - WSW 6.9 mph - N/A   Clear
2:00 AM 39.2 °F - 33.8 °F 81% 30.36 in - Variable 1.2 mph - N/A   Clear
5:00 AM 35.6 °F - 32.0 °F 87% 30.33 in - Calm Calm - N/A   Clear
7:00 AM 33.8 °F - 32.0 °F 93% 30.33 in - Variable 2.3 mph - N/A   Clear
8:00 AM 35.6 °F - 32.0 °F 87% 30.36 in - Calm Calm - N/A   Clear
9:00 AM 41 °F - 38 °F 86% 30.43 in 12 mi Calm Calm - -  
9:00 AM 41.0 °F - 39.2 °F 93% 30.36 in - Calm Calm - N/A   Clear
10:00 AM 50.0 °F - 44.6 °F 82% 30.39 in - Variable 2.3 mph - N/A   Clear
11:00 AM 57.2 °F - 44.6 °F 63% 30.36 in - Variable 2.3 mph - N/A   Clear
12:00 PM 59.0 °F - 41.0 °F 51% 30.36 in - NW 6.9 mph - N/A   Clear
2:00 PM 62.6 °F - 41.0 °F 45% 30.30 in - North 4.6 mph - N/A   Clear
3:00 PM 63 °F - 42 °F 35% 30.29 in 6 mi NNE 4.6 mph - -  
3:00 PM 62.6 °F - 41.0 °F 45% 30.30 in - NNE 4.6 mph - N/A   Clear
4:00 PM 60.8 °F - 42.8 °F 52% 30.30 in - NNE 6.9 mph - N/A   Clear
5:00 PM 57.2 °F - 42.8 °F 59% 30.33 in - North 5.8 mph - N/A   Clear
6:00 PM 52 °F - 42 °F 59% 30.35 in 12 mi Calm Calm - -  
6:00 PM 51.8 °F - 42.8 °F 71% 30.33 in - Calm Calm - N/A   Clear
7:00 PM 46.4 °F 45.2 °F 39.2 °F 76% 30.33 in - SW 3.5 mph - N/A   Clear
8:00 PM 42.8 °F 40.1 °F 37.4 °F 81% 30.36 in - SW 4.6 mph - N/A   Clear
9:00 PM 40 °F - 35 °F 78% 30.41 in 12 mi SW 6.9 mph - -  
9:00 PM 41.0 °F 36.4 °F 35.6 °F 81% 30.36 in - SW 6.9 mph - N/A   Clear
10:00 PM 41.0 °F - 35.6 °F 81% 30.36 in - Variable 2.3 mph - N/A   Clear
11:00 PM 37.4 °F 34.9 °F 32.0 °F 81% 30.36 in - SSW 3.5 mph - N/A   Clear